Regional Weather Roundup
Issued by NWS

Home | Current Version | Previous Version | Text Only | Print | Product List | Glossary On
Versions: 1 2 3 4 5 6 7 8 9 10 11 12 13 14 15 16 17 18 19 20 21 22 23 24 25 26 27 28 29 30 31 32 33 34 35 36 37 38 39 40 41 42 43 44 45 46 47 48 49 50
000
ASUS45 KREV 291510
RWRNV
NEVADA REGIONAL WEATHER ROUNDUP
NATIONAL WEATHER SERVICE RENO NV
800 AM PDT SUN MAR 29 2015

NOTE: "FAIR" INDICATES FEW OR NO CLOUDS BELOW 12,000 FEET WITH NO
SIGNIFICANT WEATHER AND/OR OBSTRUCTIONS TO VISIBILITY.

NVZ001-003-004-291600-
WESTERN NEVADA

CITY           SKY/WX    TMP DP  RH WIND       PRES   REMARKS
RENO           MOSUNNY   42  20  41 E3        30.28R
CARSON CITY    FAIR      37  18  44 CALM      30.30R
MINDEN         FAIR      34  12  40 CALM      30.31
PYRAMID LAKE     N/A     52 N/A N/A NW2         N/A
FALLON         MOSUNNY   41   9  26 CALM      30.27S
LOVELOCK       MOSUNNY   44  14  29 NE12      30.28R
HAWTHORNE      SUNNY     48  10  21 CALM      30.28R
$$

NVZ002-CAZ072-073-291600-
NORTHERN AND CENTRAL SIERRA

CITY           SKY/WX    TMP DP  RH WIND       PRES   REMARKS
S. LAKE TAHOE  SUNNY     32  23  69 CALM      30.30R
TRUCKEE        MOSUNNY   25  21  86 CALM      30.32R
SQUAW VLY 8000   N/A     39  10  30 S2          N/A
BLUE CANYON    SUNNY     58  15  18 E3        30.24S
BRIDGEPORT     FAIR      28  16  60 CALM      30.33R
$$

NVZ030-031-036-291600-
NORTHERN NEVADA

CITY           SKY/WX    TMP DP  RH WIND       PRES   REMARKS
ELKO           MOSUNNY   31  13  47 E6        30.34R
WINNEMUCCA     MOSUNNY   34  12  40 SE3       30.31R
WENDOVER       MOSUNNY   45  21  39 NE7       30.33S
$$

NVZ035-037-291600-
CENTRAL NEVADA

CITY           SKY/WX    TMP DP  RH WIND       PRES   REMARKS
ELY            SUNNY     34  14  43 S9        30.35S
EUREKA           N/A     39  11  31 CALM      30.33R
$$

NVZ013-014-291600-
SOUTH CENTRAL NEVADA

CITY           SKY/WX    TMP DP  RH WIND       PRES   REMARKS
TONOPAH        MOSUNNY   50  13  22 N13       30.27R
$$

NVZ017-020-022-291600-
SOUTHERN NEVADA

CITY           SKY/WX    TMP DP  RH WIND       PRES   REMARKS
LAS VEGAS      MOSUNNY   67  22  18 S10       30.07R
N. LAS VEGAS   SUNNY     68  18  14 NW6       30.09S
NELLIS AFB     NOT AVBL
HENDERSON      MOSUNNY   64  26  23 S5        30.13R
MERCURY        SUNNY     63  15  15 E7        30.14R
$$


USA.gov is the U.S. government's official web portal to all federal, state and local government web resources and services.